Temperature
7 7 8 8 8 8 8 8 8 8 8 8 8 8 8 8 8 7 7 7 7 7 7 7 7 7 7 7 7 7 7 7 7 7 8 8 8 8 8 8 7 7 7
7 7 7 7 7 7 7 7 7 7 7 7 7 7 7 7 7 7 7 7 7 7 7 7 7 7 6 6 7 6 6 6 6 6 6 6 7 7 7 7 7 7 7
6 6 6 6 7 7 7 7 7 7 7 7 6 6 6 6 6 6 6 6 6 6 6 6 6 6 6 6 6 6 6 6 6 6 5 5 5 5 6 6 6 6 6
6 6 6 6 6 6 6 6 6 6 6 6 6 6 6 6 6 6 6 5 5 5 5 5 5 5 5 5 5 5 5 5 5 5 5 5 4 4 4 5 5 6 6
5 6 6 6 6 6 6 6 6 6 6 6 5 5 5 5 5 5 5 5 5 5 5 5 5 5 5 5 5 5 5 4 4 4 4 4 4 4 3 4 4 5 5
5 5 5 5 5 5 5 5 5 5 5 5 5 5 5 5 4 4 4 4 4 4 4 4 4 4 4 4 4 4 4 4 4 4 4 3 3 3 3 3 3 4 4
4 5 5 5 5 5 5 5 5 5 5 4 4 4 4 4 4 4 4 4 4 4 4 4 4 3 3 3 3 3 3 3 3 3 3 3 3 3 3 3 2 2 3
4 4 4 5 5 4 4 4 4 4 4 4 4 4 4 3 3 3 3 3 3 3 3 3 3 3 3 3 3 3 3 3 3 3 3 3 3 3 2 2 2 2 2
4 4 4 4 4 4 4 4 4 4 4 3 3 3 3 3 3 3 3 3 3 3 2 2 2 2 2 2 2 2 3 3 2 2 2 2 2 2 2 2 2 2 1
3 4 4 4 4 4 4 4 3 3 3 3 3 3 3 3 2 2 2 2 2 2 2 2 2 2 2 2 2 2 2 2 2 2 2 2 2 2 2 2 2 2 1
3 3 3 3 3 3 3 3 3 3 3 2 2 2 2 2 2 2 2 2 2 1 1 1 2 2 2 1 1 1 2 1 1 1 1 2 2 1 1 1 1 1 1
3 3 3 3 3 3 3 3 2 2 2 2 2 2 2 2 2 1 1 1 1 1 1 1 1 1 1 1 1 1 1 1 1 1 1 1 1 1 1 1 1 1 1
2 2 2 2 2 2 2 2 2 2 2 2 2 1 1 1 1 1 1 1 1 1 0 0 0 1 0 0 0 0 0 0 0 0 1 1 1 1 1 1 1 0 0
2 2 2 2 2 2 2 2 1 1 1 1 1 1 1 1 1 1 0 0 0 0 -0 -0 -0 -0 -0 -0 -0 -0 -0 -0 -0 -0 0 0 0 0 0 0 0 0 0
2 2 2 2 1 1 1 1 1 1 1 1 1 0 0 0 -0 -0 -0 -0 -0 -0 -1 -1 -1 -1 -1 -1 -1 -1 -1 -0 -0 -0 -0 -0 -0 -0 -0 -0 -0 -0 -0
1 1 1 1 1 1 1 1 0 0 0 0 0 -0 -0 -0 -1 -1 -1 -1 -1 -1 -1 -1 -1 -1 -1 -1 -1 -1 -1 -1 -1 -1 -1 -1 -1 -1 -1 -1 -1 -1 -1
1 1 1 1 1 1 0 0 0 -0 -0 -0 -0 -0 -1 -1 -1 -1 -1 -1 -1 -2 -2 -2 -2 -2 -2 -2 -2 -2 -2 -1 -1 -1 -1 -1 -1 -1 -1 -1 -1 -1 -1
1 1 1 1 0 0 0 -0 -0 -1 -1 -1 -1 -1 -1 -1 -1 -2 -2 -2 -2 -2 -2 -2 -2 -2 -2 -2 -2 -2 -2 -2 -2 -2 -2 -2 -2 -2 -2 -2 -1 -1 -1
1 1 0 0 0 -0 -0 -0 -1 -1 -1 -1 -1 -1 -1 -2 -2 -2 -2 -2 -2 -2 -3 -3 -2 -2 -2 -2 -3 -2 -2 -2 -2 -2 -2 -2 -2 -2 -2 -2 -2 -2 -2
0 0 -0 -0 -0 -1 -1 -1 -1 -1 -1 -1 -1 -2 -2 -2 -2 -2 -2 -3 -3 -3 -3 -3 -3 -3 -3 -3 -3 -3 -3 -3 -3 -3 -3 -3 -3 -3 -3 -3 -2 -2 -2
-0 -0 -1 -1 -1 -1 -1 -1 -1 -2 -2 -2 -2 -2 -2 -2 -2 -3 -3 -3 -3 -3 -3 -3 -3 -3 -3 -3 -3 -3 -3 -3 -3 -3 -3 -3 -3 -3 -3 -3 -3 -3 -3
-0 -1 -1 -1 -1 -1 -2 -2 -2 -2 -2 -2 -2 -2 -2 -3 -3 -3 -3 -3 -3 -3 -3 -4 -3 -3 -3 -3 -4 -4 -4 -4 -4 -4 -4 -4 -4 -4 -4 -4 -3 -3 -3
-1 -1 -2 -2 -2 -2 -2 -2 -2 -2 -2 -2 -2 -2 -3 -3 -3 -3 -3 -3 -3 -4 -4 -4 -4 -4 -4 -4 -4 -4 -4 -4 -4 -4 -4 -4 -4 -4 -4 -4 -4 -4 -4
-2 -2 -2 -2 -2 -2 -2 -2 -3 -3 -2 -3 -3 -3 -3 -3 -3 -3 -3 -3 -4 -4 -4 -4 -4 -4 -4 -4 -4 -4 -4 -4 -4 -4 -4 -4 -4 -4 -4 -4 -4 -4 -4
-2 -2 -2 -3 -3 -3 -3 -3 -3 -3 -3 -3 -3 -3 -3 -3 -3 -3 -4 -4 -4 -4 -4 -4 -5 -5 -5 -4 -5 -5 -5 -5 -5 -4 -4 -4 -4 -4 -4 -4 -4 -4 -4
-2 -3 -3 -3 -3 -3 -3 -3 -3 -3 -3 -3 -3 -3 -3 -3 -4 -4 -4 -4 -4 -4 -5 -5 -5 -5 -5 -5 -5 -5 -5 -5 -5 -4 -4 -4 -4 -5 -5 -5 -5 -5 -5
Wind_Speed
3 1 1 1 1 1 1 1 1 1 1 1 1 1 2 2 1 1 1 2 2 2 2 1 1 1 1 1 1 1 1 1 1 1 3 3 3 2 2 2 2 2 3
2 1 1 1 1 1 1 1 1 1 1 1 1 1 1 2 2 1 1 1 1 2 2 2 2 2 1 1 1 1 1 1 1 0 1 2 3 2 2 2 2 2 2
4 2 1 2 1 1 2 2 2 1 1 1 1 1 1 1 0 1 1 2 2 2 2 2 2 2 2 2 2 2 2 2 2 1 1 1 3 3 2 2 2 2 2
3 3 2 2 2 2 2 1 1 1 1 1 2 2 2 2 2 2 2 2 2 2 2 2 2 3 2 3 3 2 2 3 2 2 2 2 2 2 2 3 2 2 3
4 3 3 2 1 1 0 1 1 0 0 1 2 3 2 2 1 1 2 2 2 2 3 2 2 2 2 3 3 3 3 3 3 2 2 2 2 2 3 4 3 3 3
2 2 2 1 0 0 0 1 1 0 1 1 1 3 3 2 1 2 2 2 2 2 2 2 2 2 2 3 3 3 4 4 3 3 2 2 2 2 3 4 4 4 3
2 2 2 1 1 1 1 1 1 1 1 1 1 2 3 3 4 3 3 3 2 2 3 2 2 2 3 3 3 3 4 4 4 4 3 3 4 3 3 4 4 4 4
2 2 3 3 2 2 2 1 2 2 1 1 2 2 2 2 3 3 3 3 3 3 3 2 2 2 3 3 2 3 3 3 4 5 4 4 4 3 4 3 3 4 4
2 3 3 2 2 2 3 2 2 2 2 2 2 2 2 2 3 3 3 3 3 3 3 3 2 2 2 3 3 3 3 3 4 4 4 4 4 3 4 4 4 4 4
3 3 3 3 3 3 2 2 2 2 2 2 2 2 2 2 2 2 3 3 3 3 3 3 3 3 3 3 3 3 3 3 3 3 4 4 4 4 4 4 4 4 5
4 4 3 3 3 2 1 1 1 2 2 2 2 2 2 2 2 2 3 3 3 3 3 4 3 3 3 3 3 3 2 3 3 3 4 4 4 4 4 4 4 4 4
4 3 3 3 2 2 2 1 1 2 2 2 2 2 2 1 1 2 2 2 3 3 4 4 3 3 3 3 3 3 3 4 4 4 4 4 4 4 4 4 4 4 4
3 3 3 3 3 3 2 2 2 2 2 2 2 2 2 2 2 2 2 2 3 3 3 3 3 3 3 3 4 4 4 4 5 4 4 4 4 4 4 4 4 3 3
4 3 4 4 3 3 2 2 2 2 2 2 2 2 3 2 2 2 2 2 2 3 3 2 2 3 3 4 4 4 4 4 4 4 4 4 4 4 4 4 4 3 3
5 4 4 4 3 3 3 2 2 2 2 2 2 3 2 2 1 1 2 2 2 3 3 2 2 3 3 3 3 3 3 3 3 3 4 4 5 5 5 4 3 3 2
5 4 4 4 4 4 3 3 3 2 2 2 2 2 2 1 1 1 2 2 2 2 2 2 2 3 3 4 4 3 2 2 2 3 3 3 4 5 6 7 6 4 3
5 5 5 5 5 4 4 3 3 2 2 2 2 2 2 2 1 1 1 2 2 2 2 2 2 2 3 4 4 3 1 2 2 3 3 3 3 4 3 5 5 5 6
5 5 4 4 4 3 3 3 2 2 2 2 2 2 2 2 1 1 1 2 2 2 2 2 2 2 3 4 3 3 1 1 2 2 3 3 4 3 4 3 3 3 4
5 4 4 4 3 3 2 2 2 2 2 3 3 2 2 2 2 1 2 2 1 2 2 2 1 2 3 4 3 3 1 1 2 3 3 3 3 5 5 3 3 3 4
3 3 3 3 3 2 1 1 2 2 3 3 3 2 2 2 2 2 2 2 1 2 1 2 1 2 2 4 4 3 1 1 2 2 3 4 4 5 5 2 2 3 4
3 2 3 3 3 2 1 2 3 3 3 2 2 2 2 2 2 2 2 1 1 1 1 2 2 2 2 3 4 4 1 1 2 2 2 3 5 6 6 4 2 4 4
3 2 2 3 3 2 2 3 4 3 2 1 1 1 1 1 1 1 1 1 1 0 1 1 2 2 2 3 4 4 4 3 1 2 2 3 5 6 6 5 4 6 5
3 2 2 3 3 2 2 3 4 2 1 1 1 1 1 1 1 1 1 1 1 0 1 1 1 2 2 3 4 4 5 5 2 2 4 5 5 5 4 5 5 4 2
3 2 2 3 3 3 2 3 2 1 1 1 1 1 1 0 0 0 1 1 1 1 1 1 1 2 2 2 2 2 2 3 3 2 3 4 5 4 4 3 3 2 2
2 2 3 3 4 3 2 2 1 1 2 2 1 1 1 1 0 0 1 1 2 2 2 2 2 2 2 4 5 3 2 2 2 1 1 1 2 2 2 2 2 2 2
2 3 3 3 3 3 2 2 1 2 2 2 1 1 1 1 1 0 1 2 2 2 3 3 3 3 4 5 5 5 5 5 3 1 1 1 2 2 2 2 2 2 2
Wind_Direction
256 265 238 190 146 132 142 154 142 160 129 136 160 192 224 223 224 244 237 219 196 188 185 208 210 207 208 245 252 271 295 317 315 330 322 308 284 262 260 259 260 273 291
270 294 297 242 184 189 208 201 183 170 163 182 190 202 212 221 217 228 235 235 217 212 211 203 207 212 212 238 236 198 211 288 319 316 338 323 321 306 294 284 271 279 314
222 240 269 256 227 228 230 215 204 190 181 164 131 77 56 6 307 227 233 252 243 234 233 222 211 212 204 221 232 206 195 231 274 234 186 221 259 297 282 273 278 298 303
217 213 219 245 235 240 251 238 215 190 180 158 170 170 195 223 241 244 247 261 262 245 235 232 223 213 211 220 234 221 213 204 241 265 244 232 222 252 295 283 279 287 289
215 218 219 226 246 244 256 273 235 186 169 175 192 191 210 226 251 259 264 268 262 259 246 237 228 225 223 222 228 230 220 214 223 232 245 258 257 236 241 275 289 294 277
226 233 231 191 211 186 169 237 227 254 217 193 207 204 214 222 246 266 258 271 275 263 253 244 229 228 230 227 229 224 222 224 223 231 232 230 234 235 236 256 279 286 286
228 243 248 239 240 245 240 220 199 260 264 239 249 229 222 213 225 243 245 259 271 275 269 254 229 231 236 234 228 220 225 223 222 226 236 235 244 239 242 253 272 282 289
251 252 254 245 240 245 254 251 226 250 255 251 267 249 231 222 235 241 240 241 249 259 262 255 248 250 244 241 230 229 231 230 230 236 240 241 245 242 240 240 257 284 287
276 272 273 269 256 249 245 237 237 257 258 253 264 252 234 228 240 251 248 247 253 260 259 253 243 248 246 243 233 234 233 231 239 239 240 243 245 243 244 239 235 241 274
292 288 279 277 275 256 248 233 230 242 258 254 252 266 247 240 236 244 251 254 259 257 256 254 246 244 243 243 239 245 243 236 244 247 245 243 246 245 242 237 239 236 248
277 282 283 286 290 286 264 244 239 257 262 255 258 257 252 243 238 246 255 256 260 257 254 251 246 241 241 238 237 243 246 251 261 258 254 255 248 241 240 237 241 241 239
282 286 287 298 304 292 280 267 259 256 256 251 249 247 252 249 249 261 269 263 261 259 255 251 244 243 242 234 232 242 247 247 255 260 259 263 264 254 242 235 241 244 237
290 297 298 292 291 286 274 264 264 260 259 246 238 248 251 249 259 267 278 276 272 268 262 258 250 248 246 240 238 237 244 248 251 251 252 260 262 268 261 246 244 244 246
286 285 287 285 283 278 269 262 266 261 257 246 241 249 250 246 252 267 274 277 279 274 266 264 260 255 251 246 244 245 243 246 254 255 252 251 252 256 262 258 250 243 239
286 282 284 285 282 282 280 274 275 272 253 239 243 256 256 250 259 281 286 287 290 287 273 266 276 272 260 248 239 237 239 247 262 268 262 260 266 269 274 268 260 253 245
276 283 288 287 278 270 272 270 267 264 248 238 252 262 264 259 264 280 292 301 302 304 291 278 276 276 273 272 272 266 244 246 255 270 275 273 274 282 286 285 276 261 256
271 275 273 272 269 263 259 256 254 252 236 237 256 266 254 249 257 270 288 289 291 299 305 299 286 279 280 293 294 289 273 259 266 271 278 288 290 299 287 292 301 296 284
266 272 271 274 275 268 276 274 261 239 232 237 246 249 239 248 260 267 277 277 279 280 287 295 292 297 297 307 308 305 291 284 288 286 276 272 278 286 291 289 306 301 297
258 262 267 270 274 268 274 281 267 245 237 243 245 242 227 242 261 265 270 271 267 276 277 276 277 284 297 310 313 319 275 291 296 293 290 289 278 296 306 307 300 305 308
265 275 292 288 278 272 261 254 255 245 245 249 245 233 220 229 241 249 256 267 260 272 295 307 306 290 287 306 314 322 270 296 301 301 301 303 308 311 319 310 292 296 300
287 287 293 282 274 263 238 248 252 248 251 248 239 233 224 228 229 239 247 232 253 305 320 323 316 304 307 313 317 321 284 257 286 301 308 304 317 321 325 327 305 293 305
291 291 290 285 289 265 224 247 256 258 250 231 229 235 231 230 221 208 225 207 174 177 322 328 327 327 319 325 317 322 319 314 277 285 289 294 314 321 325 325 317 316 319
279 285 274 284 297 280 223 238 258 254 235 210 228 244 239 229 206 182 183 174 167 185 295 300 319 331 326 320 327 327 326 326 321 294 305 315 322 324 322 322 323 327 327
279 282 268 270 285 285 257 244 252 224 185 205 223 216 172 301 72 176 196 196 207 225 265 290 297 313 319 316 310 303 313 320 317 314 323 331 331 326 318 322 326 324 307
283 275 255 257 271 280 274 262 242 192 187 205 206 189 167 189 190 276 248 243 238 231 245 256 261 274 291 298 310 313 300 291 282 310 339 338 333 338 339 333 330 330 323
274 279 267 261 267 267 273 273 228 191 184 192 191 185 187 189 160 52 353 335 303 294 300 294 296 298 302 311 315 318 321 320 323 352 331 316 315 312 315 316 318 317 314
Height
1468 1469 1470 1470 1471 1473 1474 1474 1475 1476 1477 1477 1477 1478 1479 1480 1481 1482 1482 1482 1482 1483 1483 1484 1484 1484 1485 1485 1486 1485 1486 1486 1486 1485 1484 1484 1484 1483 1483 1484 1484 1484 1484
1465 1466 1467 1467 1468 1469 1470 1471 1471 1472 1473 1474 1474 1475 1476 1476 1477 1478 1478 1479 1479 1479 1479 1480 1480 1480 1480 1481 1482 1482 1482 1482 1482 1482 1481 1480 1480 1479 1480 1480 1480 1480 1480
1462 1463 1463 1464 1465 1466 1467 1467 1468 1469 1470 1471 1472 1472 1472 1472 1473 1474 1474 1475 1475 1475 1475 1476 1476 1476 1477 1477 1478 1478 1478 1478 1479 1479 1480 1478 1476 1476 1475 1475 1476 1476 1476
1459 1460 1461 1461 1462 1463 1464 1464 1465 1466 1466 1467 1468 1468 1468 1468 1469 1469 1470 1471 1471 1471 1471 1471 1472 1472 1472 1473 1474 1474 1474 1475 1475 1475 1475 1476 1475 1474 1471 1471 1471 1472 1471
1457 1458 1458 1459 1460 1461 1461 1462 1463 1463 1463 1464 1464 1464 1465 1465 1465 1466 1466 1467 1467 1467 1467 1467 1467 1468 1468 1469 1469 1470 1470 1471 1471 1471 1471 1471 1471 1470 1469 1466 1466 1467 1467
1454 1456 1456 1457 1458 1459 1459 1459 1459 1460 1460 1461 1461 1461 1461 1461 1461 1462 1462 1462 1463 1463 1463 1463 1463 1463 1464 1464 1465 1465 1466 1466 1466 1467 1467 1467 1467 1466 1465 1464 1462 1462 1461
1453 1453 1454 1455 1455 1456 1456 1456 1457 1457 1457 1457 1458 1458 1458 1458 1458 1458 1458 1458 1458 1458 1459 1459 1459 1459 1460 1460 1460 1460 1461 1461 1462 1462 1462 1463 1462 1462 1462 1461 1459 1458 1456
1451 1451 1452 1452 1453 1453 1453 1453 1454 1454 1454 1454 1454 1455 1454 1455 1455 1455 1455 1454 1454 1454 1455 1455 1455 1455 1455 1455 1455 1456 1456 1456 1457 1457 1458 1458 1458 1458 1458 1457 1456 1454 1452
1450 1450 1450 1450 1450 1451 1451 1451 1451 1451 1451 1451 1451 1451 1451 1451 1451 1451 1451 1451 1451 1451 1451 1451 1451 1451 1451 1451 1451 1451 1451 1452 1452 1452 1453 1453 1453 1453 1453 1453 1453 1452 1448
1448 1448 1448 1448 1448 1448 1448 1448 1448 1448 1448 1448 1448 1448 1448 1448 1448 1448 1447 1447 1447 1447 1447 1447 1446 1446 1447 1447 1447 1447 1447 1447 1447 1448 1448 1448 1448 1449 1449 1448 1448 1447 1446
1447 1447 1447 1446 1446 1446 1445 1445 1444 1444 1444 1444 1445 1444 1444 1444 1444 1444 1444 1443 1443 1443 1443 1443 1442 1442 1442 1443 1443 1442 1442 1442 1443 1443 1444 1443 1444 1443 1444 1443 1443 1443 1442
1446 1445 1445 1444 1443 1443 1442 1442 1441 1441 1441 1441 1441 1441 1441 1441 1440 1440 1440 1439 1439 1439 1439 1438 1438 1438 1438 1438 1438 1438 1438 1438 1438 1439 1439 1439 1439 1439 1439 1438 1438 1437 1437
1444 1443 1442 1442 1441 1440 1440 1439 1439 1438 1438 1438 1437 1437 1437 1437 1436 1436 1436 1436 1435 1435 1434 1434 1433 1433 1433 1434 1434 1434 1434 1434 1434 1434 1434 1434 1435 1434 1434 1434 1433 1433 1432
1441 1440 1440 1439 1439 1438 1437 1436 1436 1435 1435 1434 1433 1433 1433 1433 1433 1432 1432 1432 1431 1431 1430 1430 1429 1429 1430 1430 1430 1430 1430 1430 1430 1430 1430 1430 1430 1430 1430 1429 1429 1428 1428
1439 1438 1437 1437 1436 1435 1434 1434 1433 1432 1431 1431 1430 1430 1430 1429 1429 1429 1429 1428 1428 1427 1427 1426 1426 1426 1426 1426 1426 1426 1426 1426 1426 1426 1426 1426 1426 1426 1426 1425 1425 1425 1424
1436 1435 1434 1434 1433 1432 1431 1431 1430 1429 1428 1427 1427 1427 1426 1426 1425 1425 1425 1425 1424 1424 1423 1422 1422 1423 1423 1423 1423 1423 1423 1423 1423 1422 1422 1422 1422 1422 1422 1422 1421 1421 1420
1433 1432 1431 1430 1429 1429 1428 1427 1427 1426 1425 1424 1424 1424 1423 1423 1422 1422 1422 1421 1421 1421 1421 1420 1420 1420 1420 1420 1420 1420 1420 1420 1420 1419 1419 1419 1419 1419 1418 1418 1417 1417 1417
1429 1429 1428 1427 1426 1425 1425 1424 1423 1423 1422 1421 1421 1420 1420 1420 1419 1419 1418 1419 1419 1418 1418 1417 1417 1417 1417 1417 1417 1417 1417 1416 1416 1416 1416 1416 1415 1415 1415 1414 1413 1413 1413
1427 1426 1425 1423 1422 1422 1421 1420 1420 1419 1419 1418 1418 1417 1417 1416 1416 1416 1416 1416 1416 1416 1415 1415 1415 1415 1415 1415 1414 1414 1413 1413 1413 1413 1413 1413 1412 1412 1412 1411 1410 1410 1409
1423 1422 1421 1420 1419 1418 1418 1417 1416 1416 1416 1415 1415 1415 1414 1414 1414 1414 1414 1413 1413 1413 1413 1413 1413 1413 1412 1412 1412 1412 1411 1411 1411 1411 1410 1410 1410 1409 1409 1408 1407 1407 1406
1420 1419 1418 1416 1416 1415 1415 1414 1413 1413 1413 1413 1412 1412 1412 1412 1412 1412 1411 1411 1411 1411 1411 1411 1411 1411 1410 1410 1410 1410 1409 1409 1408 1408 1407 1407 1407 1406 1406 1406 1405 1404 1404
1416 1415 1414 1413 1413 1412 1412 1411 1410 1411 1410 1410 1410 1410 1410 1410 1410 1410 1409 1409 1409 1409 1409 1409 1409 1408 1408 1408 1408 1408 1407 1407 1406 1405 1405 1405 1404 1404 1403 1403 1403 1402 1401
1413 1412 1412 1411 1410 1410 1409 1408 1408 1408 1408 1408 1408 1408 1408 1408 1408 1408 1407 1407 1407 1407 1407 1407 1406 1406 1406 1406 1406 1405 1405 1405 1404 1403 1403 1403 1402 1401 1401 1400 1400 1399 1398
1410 1409 1409 1408 1407 1407 1406 1406 1406 1406 1406 1406 1406 1406 1406 1406 1406 1406 1406 1406 1405 1405 1405 1405 1405 1404 1404 1404 1404 1403 1403 1403 1402 1402 1401 1400 1399 1399 1398 1398 1397 1397 1396
1407 1407 1406 1405 1404 1404 1404 1404 1404 1404 1404 1404 1404 1404 1404 1404 1405 1405 1405 1404 1404 1404 1404 1404 1404 1403 1402 1403 1403 1402 1401 1401 1400 1399 1399 1398 1397 1396 1395 1395 1395 1395 1394
1405 1404 1403 1402 1402 1401 1401 1401 1401 1401 1401 1401 1402 1402 1402 1403 1403 1403 1403 1403 1403 1403 1403 1403 1403 1402 1402 1401 1401 1400 1400 1399 1399 1398 1396 1395 1395 1394 1393 1393 1393 1393 1392